This demonstration page uses our WeatherBlox Daily Observations layout. Learn more.

Left ArrowRight Arrow

38.83388, -104.82136

Hourly Observations for March 16, 2018

Temp ( °F °C ) Dew Point ( °F °C ) Humidity (%) Winds ( mph kmh ) Pressure ( in mb ) Visibility ( mi km ) Precip ( " mm )
12:58 am 00:58 Cloudy 36 2.3 29 -1.6 76 76 NW 12 19 29.10 985 10 16 0.00 0.00
1:58 am 01:58 Cloudy 35 1.7 29 -1.7 78 78 NNW 8 13 29.11 986 10 16 0.00 0.00
2:58 am 02:58 Cloudy 35 1.5 29 -1.7 80 80 Calm 29.13 986 10 16 0.00 0.00
3:58 am 03:58 Cloudy 35 1.5 28 -2.2 77 77 S 8 13 29.15 987 10 16 0.00 0.00
4:58 am 04:58 Mostly Cloudy 36 2.2 23 -5.1 59 59 S 3 6 29.19 989 10 16 0.00 0.00
5:58 am 05:58 Mostly Clear 37 2.6 21 -6.1 53 53 S 9 15 29.19 989 10 16 0.00 0.00
6:58 am 06:58 Mostly Cloudy 34 0.9 25 -3.7 72 72 SSE 8 13 29.24 990 10 16 0.00 0.00
7:58 am 07:58 Sunny 35 1.7 23 -5.2 61 61 S 5 7 29.28 991 10 16 0.00 0.00
8:58 am 08:58 Sunny 41 4.8 22 -5.5 48 48 SE 7 11 29.30 992 10 16 0.00 0.00
9:58 am 09:58 Sunny 43 6.3 16 -8.8 33 33 SE 10 17 29.32 993 10 16 0.00 0.00
10:58 am 10:58 Sunny 46 8 13 -10.4 26 26 SSE 8 13 29.35 994 10 16 0.00 0.00
11:58 am 11:58 Sunny 47 8.6 9 -12.8 21 21 E 3 6 29.36 994 10 16 0.00 0.00
12:58 pm 12:58 Sunny 51 10.3 -3 -19.3 11 11 NNE 12 19 29.36 994 10 16 0.00 0.00
1:58 pm 13:58 Sunny 51 10.4 -3 -19.2 11 11 E 16 26 29.36 994 10 16 0.00 0.00
2:40 pm 14:40 Sunny 50 10 0 -18 12 12 NW 14 22 29.37 995 10 16 0.00 0.00
2:58 pm 14:58 Sunny 53 11.4 2 -16.7 12 12 SE 12 19 29.37 995 10 16 0.00 0.00
3:58 pm 15:58 Sunny 52 10.9 1 -17.1 12 12 E 3 6 29.39 995 10 16 0.00 0.00
4:58 pm 16:58 Sunny 49 9.5 -4 -19.8 11 11 SSE 9 15 29.41 996 10 16 0.00 0.00
5:58 pm 17:58 Sunny 47 8.2 -3 -19.4 12 12 NW 3 6 29.45 997 10 16 0.00 0.00
6:58 pm 18:58 Sunny 45 7.4 -4 -19.8 12 12 W 3 6 29.50 999 10 16 0.00 0.00
7:58 pm 19:58 Clear 46 7.7 -3 -19.4 13 13 Calm 29.51 999 10 16 0.00 0.00
8:58 pm 20:58 Clear 42 5.7 -1 -18.2 16 16 W 5 7 29.53 1000 10 16 0.00 0.00
9:58 pm 21:58 Clear 42 5.5 0 -17.7 17 17 SSE 12 19 29.55 1001 10 16 0.00 0.00
10:58 pm 22:58 Clear 38 3.6 3 -16 23 23 S 18 30 29.59 1002 10 16 0.00 0.00
11:58 pm 23:58 Clear 39 3.7 8 -13.6 27 27 S 9 15 29.59 1002 10 16 0.00 0.00

Powered by AerisWeather